KI5NXU Weather Reports


Display with metric or nautical units.
time (UTC)temp
F
wind
direction
speed
MPH
gust
MPH
rain 1hr
in
rain 24hr
in
rain mn
in
humidity
%
barometer
mb
20260902024239 89 133 1.0 1.0 0.00 0.00 0.00 49 1013.9
20260902023735 89 140 1.0 1.0 0.00 0.00 0.00 48 1013.8
20260902023230 89 121 1.0 1.0 0.00 0.00 0.00 48 1013.7
20260902022730 90 137 1.0 1.0 0.00 0.00 0.00 47 1013.8
20260902022226 90 122 2.0 3.0 0.00 0.00 0.00 46 1013.5
20260902021721 91 122 1.0 1.0 0.00 0.00 0.00 46 1013.5
20260902021215 91 145 3.0 3.0 0.00 0.00 0.00 45 1013.5
20260902020712 91 178 3.0 3.0 0.00 0.00 0.00 45 1013.3
20260902020208 91 141 2.0 2.0 0.00 0.00 0.00 45 1013.0
20260902015703 91 128 2.0 2.0 0.00 0.00 0.00 45 1013.3
20260902015200 91 139 2.0 2.0 0.00 0.00 0.00 45 1013.3
20260902014700 91 133 1.0 2.0 0.00 0.00 0.00 45 1013.2
20260902014155 91 153 3.0 3.0 0.00 0.00 0.00 45 1013.0
20260902013654 92 174 4.0 5.0 0.00 0.00 0.00 45 1013.0
20260902013150 92 127 2.0 2.0 0.00 0.00 0.00 44 1013.0
20260902012646 92 138 1.0 2.0 0.00 0.00 0.00 44 1013.2
20260902012141 92 148 2.0 2.0 0.00 0.00 0.00 44 1013.0
20260902011636 93 138 2.0 2.0 0.00 0.00 0.00 43 1012.9
20260902011131 93 148 2.0 2.0 0.00 0.00 0.00 43 1012.9
20260902010631 93 150 2.0 2.0 0.00 0.00 0.00 42 1013.0
20260902010127 93 127 1.0 2.0 0.00 0.00 0.00 42 1012.8
20260902005624 93 123 1.0 1.0 0.00 0.00 0.00 41 1012.7
20260902005121 94 133 1.0 1.0 0.00 0.00 0.00 40 1013.0
20260902004620 94 142 2.0 3.0 0.00 0.00 0.00 40 1012.9
20260902004115 95 124 0.0 1.0 0.00 0.00 0.00 40 1012.8
20260902003610 95 138 1.0 1.0 0.00 0.00 0.00 39 1012.9
20260902003105 96 141 1.0 2.0 0.00 0.00 0.00 39 1012.9
20260902002555 96 137 2.0 2.0 0.00 0.00 0.00 38 1013.0
20260902002050 96 145 3.0 6.0 0.00 0.00 0.00 38 1013.0
20260902001545 96 134 1.0 1.0 0.00 0.00 0.00 38 1013.0
20260902001039 96 141 2.0 2.0 0.00 0.00 0.00 38 1012.9
20260902000534 96 143 2.0 2.0 0.00 0.00 0.00 37 1013.2
20260902000030 96 134 2.0 2.0 0.00 0.00 0.00 38 1012.9
20260901235524 97 142 1.0 1.0 0.00 0.00 0.00 37 1013.0
20260901235019 97 132 1.0 1.0 0.00 0.00 0.00 37 1012.7
20260901234518 97 135 2.0 2.0 0.00 0.00 0.00 37 1012.8
20260901234013 97 141 1.0 1.0 0.00 0.00 0.00 37 1012.8
20260901233508 97 144 1.0 1.0 0.00 0.00 0.00 37 1012.8
20260901233005 97 147 2.0 2.0 0.00 0.00 0.00 37 1013.0
20260901232459 98 144 3.0 6.0 0.00 0.00 0.00 36 1012.9
20260901231954 98 150 2.0 2.0 0.00 0.00 0.00 36 1013.3
20260901231451 99 165 3.0 3.0 0.00 0.00 0.00 35 1012.8
20260901230948 100 137 3.0 3.0 0.00 0.00 0.00 35 1012.9
20260901230447 101 118 3.0 3.0 0.00 0.00 0.00 34 1013.0
20260901225942 101 170 4.0 7.0 0.00 0.00 0.00 33 1012.9
20260901225441 101 165 3.0 3.0 0.00 0.00 0.00 33 1012.9
20260901224937 100 139 3.0 3.0 0.00 0.00 0.00 34 1012.9
20260901224433 101 168 3.0 5.0 0.00 0.00 0.00 33 1012.9
20260901223929 99 153 1.0 2.0 0.00 0.00 0.00 35 1013.2
20260901223424 99 161 2.0 2.0 0.00 0.00 0.00 36 1013.3
20260901222919 99 177 3.0 5.0 0.00 0.00 0.00 35 1012.9
20260901222416 101 177 2.0 3.0 0.00 0.00 0.00 34 1012.9
20260901221911 102 181 5.0 8.0 0.00 0.00 0.00 33 1012.9
20260901221407 102 162 3.0 3.0 0.00 0.00 0.00 34 1013.0
20260901220902 103 136 7.0 13.0 0.00 0.00 0.00 33 1012.9
20260901220401 101 182 2.0 2.0 0.00 0.00 0.00 34 1012.9
20260901215900 102 217 7.0 10.0 0.00 0.00 0.00 34 1013.0
20260901215359 103 166 4.0 5.0 0.00 0.00 0.00 33 1013.3
20260901214858 103 203 6.0 8.0 0.00 0.00 0.00 33 1013.2
20260901214357 102 157 2.0 3.0 0.00 0.00 0.00 32 1013.4
20260901213856 102 126 1.0 1.0 0.00 0.00 0.00 33 1013.2
20260901213351 101 186 4.0 5.0 0.00 0.00 0.00 34 1013.3
20260901212845 101 201 4.0 9.0 0.00 0.00 0.00 34 1013.2
20260901212341 101 95 3.0 5.0 0.00 0.00 0.00 33 1013.4
20260901211837 99 164 1.0 1.0 0.00 0.00 0.00 35 1013.5
20260901211332 99 120 2.0 2.0 0.00 0.00 0.00 37 1013.5
20260901210828 98 144 1.0 1.0 0.00 0.00 0.00 38 1013.6
20260901210324 98 147 2.0 3.0 0.00 0.00 0.00 38 1013.7
20260901205820 97 127 0.0 0.0 0.00 0.00 0.00 38 1013.6
20260901205320 98 153 1.0 1.0 0.00 0.00 0.00 38 1014.0
20260901204815 99 147 3.0 5.0 0.00 0.00 0.00 37 1014.1
20260901204311 100 139 1.0 2.0 0.00 0.00 0.00 37 1013.7
20260901203810 102 164 2.0 3.0 0.00 0.00 0.00 35 1013.9
20260901203306 101 222 6.0 7.0 0.00 0.00 0.00 35 1014.0
20260901202806 97 187 2.0 3.0 0.00 0.00 0.00 38 1013.9
20260901202301 97 190 3.0 3.0 0.00 0.00 0.00 39 1014.0
20260901201757 97 138 2.0 2.0 0.00 0.00 0.00 39 1014.1
20260901201256 96 142 1.0 1.0 0.00 0.00 0.00 40 1014.2
20260901200750 97 153 2.0 2.0 0.00 0.00 0.00 40 1014.3
20260901200246 98 174 2.0 2.0 0.00 0.00 0.00 39 1014.3
20260901195744 97 145 1.0 2.0 0.00 0.00 0.00 40 1014.7
20260901195238 97 157 1.0 2.0 0.00 0.00 0.00 39 1014.6
20260901194733 97 146 2.0 3.0 0.00 0.00 0.00 40 1014.5
20260901194222 98 97 1.0 5.0 0.00 0.00 0.00 39 1014.7
20260901193719 98 148 3.0 3.0 0.00 0.00 0.00 39 1014.8
20260901193217 101 121 1.0 2.0 0.00 0.00 0.00 37 1014.7
20260901192712 100 141 2.0 3.0 0.00 0.00 0.00 36 1014.6
20260901192208 101 190 3.0 5.0 0.00 0.00 0.00 36 1014.8
20260901191704 101 162 2.0 3.0 0.00 0.00 0.00 35 1014.8
20260901191200 100 178 2.0 3.0 0.00 0.00 0.00 36 1014.9
20260901190655 100 162 1.0 1.0 0.00 0.00 0.00 36 1015.0
20260901190154 101 139 4.0 7.0 0.00 0.00 0.00 36 1015.0
20260901185653 100 160 4.0 6.0 0.00 0.00 0.00 36 1015.2
20260901185151 100 138 1.0 2.0 0.00 0.00 0.00 38 1015.3
20260901184647 99 153 3.0 7.0 0.00 0.00 0.00 39 1015.3
20260901184142 99 60 2.0 2.0 0.00 0.00 0.00 38 1015.3
20260901183637 100 157 3.0 5.0 0.00 0.00 0.00 38 1015.4
20260901183132 99 162 7.0 10.0 0.00 0.00 0.00 38 1015.5
20260901182629 97 147 5.0 7.0 0.00 0.00 0.00 40 1015.4
20260901182128 97 102 6.0 8.0 0.00 0.00 0.00 41 1015.7
20260901181627 97 153 2.0 2.0 0.00 0.00 0.00 41 1015.7
20260901181122 98 112 3.0 3.0 0.00 0.00 0.00 41 1015.6
20260901180616 97 138 4.0 6.0 0.00 0.00 0.00 40 1015.8
20260901180116 98 149 1.0 1.0 0.00 0.00 0.00 38 1016.0
20260901175614 100 162 4.0 6.0 0.00 0.00 0.00 35 1016.1
20260901175109 99 146 3.0 3.0 0.00 0.00 0.00 36 1015.9
20260901174605 99 150 3.0 5.0 0.00 0.00 0.00 39 1016.0
20260901174101 99 126 3.0 5.0 0.00 0.00 0.00 39 1016.4
20260901173555 99 144 3.0 3.0 0.00 0.00 0.00 38 1016.3
20260901173051 99 138 4.0 6.0 0.00 0.00 0.00 38 1016.4
20260901172547 98 125 1.0 1.0 0.00 0.00 0.00 40 1016.4
20260901172045 97 136 3.0 5.0 0.00 0.00 0.00 41 1016.4
20260901171539 95 218 4.0 6.0 0.00 0.00 0.00 43 1016.6
20260901171037 93 159 1.0 1.0 0.00 0.00 0.00 46 1016.7
20260901170532 94 217 7.0 11.0 0.00 0.00 0.00 46 1016.7
20260901170026 96 131 1.0 1.0 0.00 0.00 0.00 43 1016.6
20260901165521 96 145 1.0 2.0 0.00 0.00 0.00 43 1016.8
20260901165016 95 192 3.0 5.0 0.00 0.00 0.00 47 1016.9
20260901164512 94 206 2.0 2.0 0.00 0.00 0.00 48 1016.9
20260901164007 94 246 5.0 7.0 0.00 0.00 0.00 50 1017.0
20260901163502 93 243 3.0 3.0 0.00 0.00 0.00 51 1016.8
20260901163001 93 243 5.0 7.0 0.00 0.00 0.00 53 1016.8
20260901162457 92 244 7.0 9.0 0.00 0.00 0.00 51 1016.8
20260901161955 92 295 4.0 7.0 0.00 0.00 0.00 51 1016.9
20260901161455 92 231 3.0 3.0 0.00 0.00 0.00 52 1017.0
20260901160949 91 300 7.0 8.0 0.00 0.00 0.00 52 1016.8
20260901160446 91 266 6.0 8.0 0.00 0.00 0.00 53 1016.9
20260901155944 90 204 1.0 2.0 0.00 0.00 0.00 54 1017.0
20260901155444 91 296 6.0 7.0 0.00 0.00 0.00 53 1017.0
20260901154941 90 226 3.0 5.0 0.00 0.00 0.00 53 1016.8
20260901154440 90 177 2.0 3.0 0.00 0.00 0.00 54 1016.9
20260901153935 90 222 3.0 3.0 0.00 0.00 0.00 54 1017.0
20260901153430 89 212 2.0 2.0 0.00 0.00 0.00 55 1017.2
20260901152929 89 228 5.0 6.0 0.00 0.00 0.00 55 1017.1
20260901152424 88 224 3.0 5.0 0.00 0.00 0.00 56 1017.0
20260901151924 88 199 2.0 2.0 0.00 0.00 0.00 56 1016.8
20260901151423 88 215 3.0 3.0 0.00 0.00 0.00 57 1017.0
20260901150923 87 240 3.0 3.0 0.00 0.00 0.00 57 1017.1
20260901150421 87 157 1.0 1.0 0.00 0.00 0.00 58 1017.0
20260901145918 87 308 3.0 5.0 0.00 0.00 0.00 58 1017.2
20260901145413 86 302 5.0 6.0 0.00 0.00 0.00 58 1017.2
20260901144908 86 227 2.0 2.0 0.00 0.00 0.00 59 1017.3
20260901144404 86 207 5.0 5.0 0.00 0.00 0.00 59 1017.1
20260901143859 86 228 4.0 6.0 0.00 0.00 0.00 61 1017.0
20260901143355 85 208 1.0 1.0 0.00 0.00 0.00 62 1017.2
20260901142852 85 156 1.0 2.0 0.00 0.00 0.00 61 1017.3
20260901142350 84 229 6.0 7.0 0.00 0.00 0.00 61 1017.2
20260901141846 84 195 3.0 3.0 0.00 0.00 0.00 62 1017.2
20260901141341 84 183 2.0 2.0 0.00 0.00 0.00 63 1017.1
20260901140840 83 217 3.0 3.0 0.00 0.00 0.00 63 1017.2
20260901140338 83 214 3.0 5.0 0.00 0.00 0.00 64 1017.3
20260901135833 82 131 1.0 1.0 0.00 0.00 0.00 64 1017.1
20260901135328 82 359 1.0 1.0 0.00 0.00 0.00 64 1017.2
20260901134824 82 44 2.0 2.0 0.00 0.00 0.00 63 1017.2
20260901134319 82 97 0.0 1.0 0.00 0.00 0.00 63 1017.2
20260901133813 83 154 1.0 1.0 0.00 0.00 0.00 62 1017.3
20260901133312 82 128 0.0 0.0 0.00 0.00 0.00 63 1017.1
20260901132810 82 112 0.0 1.0 0.00 0.00 0.00 63 1017.2
20260901132307 80 101 0.0 0.0 0.00 0.00 0.00 66 1017.2
20260901131800 79 101 0.0 1.0 0.00 0.00 0.00 67 1017.1
20260901131300 79 101 0.0 0.0 0.00 0.00 0.00 66 1017.2
20260901130754 77 101 0.0 0.0 0.00 0.00 0.00 68 1017.1
20260901130249 77 101 0.0 0.0 0.00 0.00 0.00 69 1017.0
20260901125747 76 100 0.0 1.0 0.00 0.00 0.00 69 1017.0
20260901125242 75 101 1.0 1.0 0.00 0.00 0.00 69 1017.1
20260901124742 76 103 1.0 2.0 0.00 0.00 0.00 68 1016.8
20260901124236 76 96 1.0 1.0 0.00 0.00 0.00 68 1016.7
20260901123736 76 92 0.0 0.0 0.00 0.00 0.00 69 1016.8
20260901123231 76 78 2.0 2.0 0.00 0.00 0.00 68 1017.0
20260901122729 76 108 2.0 2.0 0.00 0.00 0.00 68 1016.8
20260901122225 76 126 0.0 1.0 0.00 0.00 0.00 69 1016.4
20260901121719 76 126 0.0 0.0 0.00 0.00 0.00 69 1016.4
20260901121215 76 126 0.0 0.0 0.00 0.00 0.00 68 1016.3
20260901120714 76 126 0.0 1.0 0.00 0.00 0.00 68 1016.3
20260901120209 76 127 0.0 1.0 0.00 0.00 0.00 68 1016.3
20260901115704 76 127 1.0 1.0 0.00 0.00 0.00 68 1016.3
20260901115200 76 127 0.0 1.0 0.00 0.00 0.00 68 1016.6
20260901114657 76 127 0.0 0.0 0.00 0.00 0.00 68 1016.3
20260901114156 75 115 0.0 0.0 0.00 0.00 0.00 69 1016.2
20260901113655 75 116 0.0 0.0 0.00 0.00 0.00 68 1016.6
20260901113151 76 112 0.0 0.0 0.00 0.00 0.00 67 1016.2
20260901112645 76 96 0.0 0.0 0.00 0.00 0.00 67 1016.1
20260901112144 75 100 1.0 1.0 0.00 0.00 0.00 67 1016.4
20260901111644 75 89 0.0 1.0 0.00 0.00 0.00 67 1016.3
20260901111144 75 111 1.0 1.0 0.00 0.00 0.00 67 1016.3
20260901110639 74 94 1.0 1.0 0.00 0.00 0.00 67 1016.3
20260901110134 75 98 1.0 1.0 0.00 0.00 0.00 66 1016.2
20260901105631 75 93 1.0 2.0 0.00 0.00 0.00 66 1016.0
20260901105130 75 97 0.0 0.0 0.00 0.00 0.00 65 1016.3
20260901104626 75 91 1.0 2.0 0.00 0.00 0.00 65 1016.3
20260901104121 75 82 2.0 2.0 0.00 0.00 0.00 65 1016.1
20260901103620 75 97 1.0 1.0 0.00 0.00 0.00 65 1016.1
20260901103116 74 89 2.0 2.0 0.00 0.00 0.00 65 1016.1
20260901102610 75 93 2.0 2.0 0.00 0.00 0.00 65 1016.0
20260901102105 75 103 1.0 1.0 0.00 0.00 0.00 65 1015.9
20260901101601 76 98 0.0 1.0 0.00 0.00 0.00 64 1015.9
20260901101100 76 99 1.0 1.0 0.00 0.00 0.00 64 1016.1
20260901100600 76 99 0.0 0.0 0.00 0.00 0.00 64 1015.9
20260901100055 76 99 0.0 0.0 0.00 0.00 0.00 64 1016.0
20260901095553 76 99 0.0 0.0 0.00 0.00 0.00 63 1015.7
20260901095050 77 99 1.0 1.0 0.00 0.00 0.00 62 1015.7
20260901094546 78 100 0.0 0.0 0.00 0.00 0.00 61 1015.9
20260901094045 78 96 0.0 1.0 0.00 0.00 0.00 60 1015.9
20260901093540 77 75 0.0 0.0 0.00 0.00 0.00 61 1016.0
20260901093035 76 74 0.0 0.0 0.00 0.00 0.00 62 1016.0
20260901092531 77 73 0.0 0.0 0.00 0.00 0.00 62 1015.8
20260901092026 76 73 1.0 1.0 0.00 0.00 0.00 62 1015.9
20260901091521 77 106 0.0 1.0 0.00 0.00 0.00 61 1016.0
20260901091016 77 105 1.0 1.0 0.00 0.00 0.00 60 1016.0
20260901090515 77 82 0.0 1.0 0.00 0.00 0.00 60 1016.0
20260901090011 77 83 0.0 1.0 0.00 0.00 0.00 61 1015.9
20260901085507 77 78 1.0 1.0 0.00 0.00 0.00 60 1015.7
20260901085003 77 79 1.0 1.0 0.00 0.00 0.00 61 1015.6
20260901084458 77 94 0.0 0.0 0.00 0.00 0.00 61 1015.6
20260901083954 77 64 0.0 1.0 0.00 0.00 0.00 61 1015.5
20260901083448 77 62 0.0 0.0 0.00 0.00 0.00 61 1015.6
20260901082946 77 98 0.0 0.0 0.00 0.00 0.00 62 1015.8
20260901082441 77 95 1.0 1.0 0.00 0.00 0.00 62 1016.0
20260901081936 77 94 0.0 0.0 0.00 0.00 0.00 61 1015.8
20260901081431 77 94 0.0 0.0 0.00 0.00 0.00 61 1015.7
20260901080926 77 94 0.0 0.0 0.00 0.00 0.00 61 1015.7
20260901080421 77 94 0.0 0.0 0.00 0.00 0.00 62 1015.6
20260901075921 77 94 0.0 0.0 0.00 0.00 0.00 61 1015.6
20260901075416 77 94 0.0 0.0 0.00 0.00 0.00 61 1015.6
20260901074915 78 94 0.0 0.0 0.00 0.00 0.00 60 1015.3
20260901074410 78 94 0.0 0.0 0.00 0.00 0.00 59 1015.6
20260901073906 78 94 0.0 1.0 0.00 0.00 0.00 58 1015.5
20260901073402 78 94 0.0 0.0 0.00 0.00 0.00 60 1015.6
20260901072857 79 94 0.0 0.0 0.00 0.00 0.00 59 1015.6
20260901072357 79 92 0.0 0.0 0.00 0.00 0.00 58 1015.5
20260901071852 79 92 0.0 0.0 0.00 0.00 0.00 58 1015.5
20260901071350 80 92 0.0 0.0 0.00 0.00 0.00 57 1015.4
20260901070850 80 91 0.0 0.0 0.00 0.00 0.00 59 1015.2
20260901070346 79 91 0.0 1.0 0.00 0.00 0.00 58 1015.4
20260901065844 80 91 0.0 0.0 0.00 0.00 0.00 58 1015.3
20260901065340 80 91 0.0 0.0 0.00 0.00 0.00 57 1015.3
20260901064835 80 91 0.0 1.0 0.00 0.00 0.00 56 1015.6
20260901064331 79 95 1.0 1.0 0.00 0.00 0.00 58 1015.7
20260901063829 80 127 0.0 0.0 0.00 0.00 0.00 57 1015.4
20260901063325 81 128 0.0 0.0 0.00 0.00 0.00 56 1015.4
20260901062821 82 129 0.0 0.0 0.00 0.00 0.00 54 1015.5
20260901062317 82 133 1.0 1.0 0.00 0.00 0.00 53 1015.2
20260901061812 82 134 1.0 1.0 0.00 0.00 0.00 53 1015.2
20260901061312 82 135 1.0 1.0 0.00 0.00 0.00 53 1015.3
20260901060808 82 122 1.0 1.0 0.00 0.00 0.00 53 1015.4
20260901060303 82 119 1.0 1.0 0.00 0.00 0.00 52 1015.3
20260901055758 82 149 2.0 2.0 0.00 0.00 0.00 52 1015.2
20260901055255 82 146 2.0 2.0 0.00 0.00 0.00 52 1015.3
20260901054752 82 134 1.0 1.0 0.00 0.00 0.00 52 1015.1
20260901054248 83 138 1.0 2.0 0.00 0.00 0.00 52 1015.2
20260901053743 83 148 2.0 2.0 0.00 0.00 0.00 52 1015.2
20260901053238 83 135 0.0 0.0 0.00 0.00 0.00 52 1015.2
20260901052734 83 136 0.0 1.0 0.00 0.00 0.00 51 1015.1
20260901052229 84 145 1.0 1.0 0.00 0.00 0.00 50 1014.9
20260901051728 84 143 1.0 1.0 0.00 0.00 0.00 50 1015.1
20260901051222 84 162 2.0 3.0 0.00 0.00 0.00 49 1014.9
20260901050718 85 148 2.0 2.0 0.00 0.00 0.00 49 1015.1
20260901050213 85 144 2.0 3.0 0.00 0.00 0.00 49 1014.9
20260901045708 85 144 1.0 1.0 0.00 0.00 0.00 48 1015.0
20260901045202 85 154 2.0 2.0 0.00 0.00 0.00 48 1014.9
20260901044653 85 146 1.0 2.0 0.00 0.00 0.00 48 1015.0
20260901044149 86 138 2.0 2.0 0.00 0.00 0.00 47 1014.9
20260901043644 86 158 3.0 3.0 0.00 0.00 0.00 47 1015.1
20260901043140 86 168 3.0 3.0 0.00 0.00 0.00 47 1015.0
20260901042639 85 155 2.0 2.0 0.00 0.00 0.00 47 1015.1
20260901042134 86 151 1.0 2.0 0.00 0.00 0.00 47 1014.9
20260901041630 86 137 1.0 1.0 0.00 0.00 0.00 46 1015.0
20260901041125 86 149 1.0 2.0 0.00 0.00 0.00 46 1014.9
20260901040624 86 145 0.0 1.0 0.00 0.00 0.00 46 1015.0
20260901040118 86 141 0.0 1.0 0.00 0.00 0.00 46 1014.7
20260901035616 87 153 1.0 2.0 0.00 0.00 0.00 45 1015.0
20260901035115 87 160 2.0 3.0 0.00 0.00 0.00 44 1014.7
20260901034614 87 165 3.0 5.0 0.00 0.00 0.00 44 1014.9
20260901034109 87 137 1.0 1.0 0.00 0.00 0.00 44 1014.8
20260901033608 88 148 2.0 2.0 0.00 0.00 0.00 43 1014.7
20260901033103 88 151 2.0 2.0 0.00 0.00 0.00 43 1014.7
20260901032601 88 150 2.0 2.0 0.00 0.00 0.00 42 1014.7
20260901032057 88 162 2.0 2.0 0.00 0.00 0.00 42 1014.6
20260901031552 89 154 2.0 2.0 0.00 0.00 0.00 42 1014.6
20260901031048 89 144 2.0 2.0 0.00 0.00 0.00 41 1014.7
20260901030548 89 154 3.0 3.0 0.00 0.00 0.00 41 1014.5
20260901030043 89 164 3.0 5.0 0.00 0.00 0.00 40 1014.4
20260901025542 90 155 3.0 3.0 0.00 0.00 0.00 40 1014.2
20260901025043 90 142 2.0 2.0 0.00 0.00 0.00 40 1014.4
20260901024538 90 144 3.0 5.0 0.00 0.00 0.00 39 1014.3